TimePST,TemperatureF,Dew PointF,Humidity,Sea Level PressureIn,VisibilityMPH,Wind Direction,Wind SpeedMPH,Gust SpeedMPH,PrecipitationIn,Events,Conditions,WindDirDegrees,DateUTC
12:28 AM,33.8,32.0,93,30.21,10.0,Calm,Calm,-,N/A,,Mostly Cloudy,0,2013-02-08 08:28:00
12:53 AM,34.0,32.0,92,30.23,10.0,Calm,Calm,-,N/A,,Overcast,0,2013-02-08 08:53:00
1:19 AM,33.8,32.0,93,30.21,10.0,Calm,Calm,-,N/A,,Scattered Clouds,0,2013-02-08 09:19:00
1:41 AM,33.8,32.0,93,30.21,10.0,Calm,Calm,-,N/A,,Mostly Cloudy,0,2013-02-08 09:41:00
1:53 AM,34.0,32.0,92,30.23,10.0,Calm,Calm,-,N/A,,Overcast,0,2013-02-08 09:53:00
2:53 AM,35.1,33.1,92,30.25,10.0,Calm,Calm,-,N/A,,Overcast,0,2013-02-08 10:53:00
3:03 AM,35.6,33.8,93,30.23,10.0,Calm,Calm,-,N/A,,Overcast,0,2013-02-08 11:03:00
3:53 AM,35.6,33.8,93,30.23,10.0,Calm,Calm,-,N/A,,Overcast,0,2013-02-08 11:53:00
4:25 AM,33.8,33.8,100,30.24,10.0,Calm,Calm,-,N/A,,Overcast,0,2013-02-08 12:25:00
4:53 AM,35.1,33.1,92,30.27,10.0,Calm,Calm,-,N/A,,Overcast,0,2013-02-08 12:53:00
5:53 AM,36.0,33.1,89,30.28,10.0,Calm,Calm,-,N/A,,Overcast,0,2013-02-08 13:53:00
6:06 AM,35.6,33.8,93,30.26,10.0,Calm,Calm,-,N/A,,Overcast,0,2013-02-08 14:06:00
6:53 AM,35.1,33.1,92,30.28,10.0,Calm,Calm,-,N/A,,Overcast,0,2013-02-08 14:53:00
7:53 AM,37.0,34.0,89,30.30,9.0,Calm,Calm,-,N/A,,Overcast,0,2013-02-08 15:53:00
8:53 AM,35.6,33.8,93,30.29,10.0,SE,3.5,-,N/A,,Overcast,130,2013-02-08 16:53:00
9:25 AM,37.4,33.8,87,30.30,10.0,Calm,Calm,-,N/A,,Overcast,0,2013-02-08 17:25:00
9:53 AM,37.9,34.0,86,30.32,10.0,Calm,Calm,-,N/A,,Overcast,0,2013-02-08 17:53:00
10:53 AM,41.0,37.0,86,30.33,10.0,NW,3.5,-,N/A,,Overcast,320,2013-02-08 18:53:00
11:53 AM,42.1,37.0,82,30.32,10.0,NW,5.8,-,N/A,,Overcast,310,2013-02-08 19:53:00
12:53 PM,43.0,36.0,76,30.31,10.0,NW,4.6,-,N/A,,Mostly Cloudy,320,2013-02-08 20:53:00
1:53 PM,43.0,36.0,76,30.30,10.0,Calm,Calm,-,N/A,,Overcast,0,2013-02-08 21:53:00
2:53 PM,44.1,36.0,73,30.30,10.0,Calm,Calm,-,N/A,,Overcast,0,2013-02-08 22:53:00
3:53 PM,44.1,36.0,73,30.30,10.0,Calm,Calm,-,N/A,,Overcast,0,2013-02-08 23:53:00
4:53 PM,44.1,36.0,73,30.30,10.0,Calm,Calm,-,N/A,,Overcast,0,2013-02-09 00:53:00
5:53 PM,43.0,37.0,80,30.30,10.0,Calm,Calm,-,N/A,,Overcast,0,2013-02-09 01:53:00
6:53 PM,43.0,35.1,74,30.30,10.0,Calm,Calm,-,N/A,,Overcast,0,2013-02-09 02:53:00
7:53 PM,43.0,37.0,80,30.30,10.0,Calm,Calm,-,N/A,,Overcast,0,2013-02-09 03:53:00
8:53 PM,42.1,36.0,79,30.30,10.0,Calm,Calm,-,N/A,,Overcast,0,2013-02-09 04:53:00
9:53 PM,42.1,36.0,79,30.30,10.0,Calm,Calm,-,N/A,,Overcast,0,2013-02-09 05:53:00
10:53 PM,41.0,36.0,82,30.30,10.0,Calm,Calm,-,N/A,,Overcast,0,2013-02-09 06:53:00
11:53 PM,39.9,36.0,86,30.30,10.0,Calm,Calm,-,N/A,,Overcast,0,2013-02-09 07:53:00